Location: Dos Palmas
(32.4468°N, 116.8732°W)
Time: 21:03:54
(UTC+00:00)

N. Korean satellite - Pass Details

Date: 07 December 2022
Orbit: 407 x 442 km, 97.3° (Epoch: 05 February)

Event Time Altitude Azimuth Distance (km) Brightness Sun altitude
Rises 12:27:42 0° 24° (NNE) 2,485 10.3 -26.4°
Reaches altitude 10° 12:29:59 10° 37° (NE) 1,597 9.5 -25.9°
Maximum altitude 12:32:57 27° 97° (E) 902 8.6 -25.3°
Drops below altitude 10° 12:35:50 10° 157° (SSE) 1,559 9.5 -24.7°
Sets 12:38:01 0° 170° (S) 2,412 10.4 -24.3°
